Retour au catalogue

HERMES 4

ActifCommunicationsSSO
NORAD 63833·PAYLOAD·🇮🇹 Italy

Lancé Mar 15, 2025 depuis Vandenberg Space Force Base

Loading…

Prochains Passages (prochaines 24 heures)

TLE

FraisSource: Space-Track

Époque: Sep 14, 2026, 10:15 UTC

1 63833U 25052BP  26257.42764055  .00007417  00000-0  24213-3 0  9996
2 63833  97.3740 150.8425 0001083 203.6286 156.4907 15.32060428 83609

Suivez HERMES 4 en temps réel avec AllMySat

Download on the App Store